GW5503 Weather Reports


time (UTC)temp
C
wind
direction
speed
KPH
gust
KPH
rain 1hr
cm
rain 24hr
cm
rain mn
cm
humidity
%
barometer
mb
20260906124105 21 47 1.6 3.2 0.00 0.00 0.00 91 995.7
20260906123605 21 49 1.6 4.8 0.00 0.00 0.00 91 995.7
20260906123106 21 46 1.6 4.8 0.00 0.00 0.00 91 995.7
20260906122606 21 46 1.6 4.8 0.00 0.00 0.00 91 995.6
20260906122329 21 46 3.2 4.8 0.00 0.00 0.00 91 995.5
20260906121823 21 47 3.2 4.8 0.00 0.00 0.00 91 995.4
20260906121100 21 57 3.2 4.8 0.00 0.00 0.00 91 995.3
20260906120600 21 48 3.2 4.8 0.00 0.00 0.00 91 995.2
20260906120100 21 47 3.2 6.4 0.00 0.00 0.00 91 995.1
20260906115600 20 44 3.2 9.7 0.00 0.00 0.00 91 995.1
20260906115100 20 42 3.2 9.7 0.00 0.00 0.00 91 994.9
20260906114601 20 47 3.2 9.7 0.00 0.00 0.00 91 994.8
20260906114100 20 50 3.2 6.4 0.00 0.00 0.00 91 994.8
20260906113600 20 46 3.2 9.7 0.00 0.00 0.00 91 994.7
20260906113101 21 48 3.2 11.3 0.00 0.00 0.00 91 994.7
20260906112600 21 46 3.2 11.3 0.00 0.00 0.00 91 994.6
20260906112057 21 46 3.2 8.0 0.00 0.00 0.00 91 994.6
20260906111557 21 47 1.6 4.8 0.00 0.00 0.00 91 994.5
20260906111059 21 39 3.2 6.4 0.00 0.00 0.00 91 994.4
20260906110557 21 47 3.2 9.7 0.00 0.00 0.00 91 994.3
20260906110058 21 48 3.2 9.7 0.00 0.00 0.00 91 994.3
20260906105558 21 46 3.2 6.4 0.00 0.00 0.00 90 994.2
20260906105058 21 47 3.2 6.4 0.00 0.00 0.00 90 994.2
20260906104558 21 46 3.2 4.8 0.00 0.00 0.00 90 994.1
20260906104058 21 47 3.2 6.4 0.00 0.00 0.00 90 994.1
20260906103558 21 46 3.2 6.4 0.00 0.00 0.00 90 994.0
20260906103058 21 46 3.2 6.4 0.00 0.00 0.00 90 994.0
20260906102817 21 46 3.2 6.4 0.00 0.00 0.00 90 994.0
20260906102055 21 45 3.2 6.4 0.00 0.00 0.00 90 994.0
20260906101819 21 46 3.2 6.4 0.00 0.00 0.00 90 993.9
20260906101056 21 46 3.2 6.4 0.00 0.00 0.00 90 993.8
20260906100556 21 46 3.2 6.4 0.00 0.00 0.00 90 993.8
20260906100314 21 46 3.2 8.0 0.00 0.00 0.00 90 993.8
20260906095556 21 47 4.8 8.0 0.00 0.00 0.00 90 993.8
20260906095056 21 45 4.8 6.4 0.00 0.00 0.00 90 993.8
20260906094556 21 47 4.8 6.4 0.00 0.00 0.00 90 993.8
20260906094056 21 46 3.2 6.4 0.00 0.00 0.00 89 993.7
20260906094040 21 48 3.2 6.4 0.00 0.00 0.00 89 993.8
20260906093056 21 46 3.2 4.8 0.00 0.00 0.00 89 993.7
20260906092554 21 47 3.2 4.8 0.00 0.00 0.00 89 993.6
20260906092053 21 45 3.2 6.4 0.00 0.00 0.00 89 993.6
20260906091553 21 45 3.2 6.4 0.00 0.00 0.00 89 993.6
20260906091054 21 47 3.2 12.9 0.00 0.00 0.00 88 993.6
20260906090553 21 15 3.2 20.9 0.00 0.00 0.00 88 993.6
20260906090054 22 349 3.2 20.9 0.00 0.00 0.00 87 993.6
20260906085816 22 53 3.2 20.9 0.00 0.00 0.00 87 993.6
20260906085054 22 39 3.2 14.5 0.00 0.00 0.00 88 993.5
20260906084817 22 325 3.2 11.3 0.00 0.00 0.00 88 993.5
20260906084054 22 0 1.6 11.3 0.00 0.00 0.00 88 993.5
20260906083554 22 26 1.6 9.7 0.00 0.00 0.00 87 993.5
20260906083055 22 16 3.2 9.7 0.00 0.00 0.00 87 993.5
20260906082555 22 358 3.2 9.7 0.00 0.00 0.00 87 993.5
20260906082051 22 46 4.8 14.5 0.00 0.00 0.00 86 993.5
20260906081552 22 45 4.8 14.5 0.00 0.00 0.00 86 993.5
20260906081052 22 6 3.2 14.5 0.00 0.00 0.00 87 993.6
20260906080552 22 83 3.2 16.1 0.00 0.00 0.00 87 993.6
20260906080051 22 41 4.8 24.1 0.00 0.00 0.00 86 993.5
20260906075549 22 31 9.7 29.0 0.00 0.00 0.00 86 993.6
20260906075049 22 32 11.3 29.0 0.00 0.00 0.00 86 993.6
20260906074810 22 33 6.4 29.0 0.00 0.00 0.00 86 993.7
20260906074050 22 330 6.4 27.4 0.00 0.00 0.00 85 993.8
20260906073549 22 44 6.4 27.4 0.00 0.00 0.00 85 993.8
20260906073050 22 49 6.4 16.1 0.00 0.00 0.00 85 993.8
20260906072547 22 47 6.4 16.1 0.00 0.00 0.00 85 993.7
20260906072046 22 43 6.4 16.1 0.00 0.00 0.00 86 993.7
20260906071546 22 44 4.8 12.9 0.00 0.00 0.00 85 993.7
20260906071047 22 30 4.8 11.3 0.00 0.00 0.00 85 993.7
20260906070804 22 26 4.8 11.3 0.00 0.00 0.00 85 993.7
20260906070307 22 25 4.8 19.3 0.00 0.00 0.00 84 993.8
20260906065547 22 11 6.4 19.3 0.00 0.00 0.00 84 993.8
20260906065047 23 29 6.4 19.3 0.00 0.00 0.00 84 993.8
20260906064547 23 294 6.4 14.5 0.00 0.00 0.00 83 993.8
20260906064047 23 2 6.4 14.5 0.00 0.00 0.00 83 993.8
20260906063547 23 286 6.4 17.7 0.00 0.00 0.00 83 993.8
20260906063316 23 39 8.0 19.3 0.00 0.00 0.00 83 993.9
20260906062545 23 33 6.4 19.3 0.00 0.00 0.00 83 993.9
20260906062044 23 46 6.4 14.5 0.00 0.00 0.00 83 993.9
20260906061545 23 303 6.4 22.5 0.00 0.00 0.00 83 993.9
20260906061044 23 27 8.0 22.5 0.00 0.00 0.00 82 993.9
20260906060544 23 43 9.7 30.6 0.00 0.00 0.00 82 993.8
20260906060046 23 40 8.0 30.6 0.00 0.00 0.00 82 993.8
20260906055545 23 58 6.4 16.1 0.00 0.00 0.00 82 993.9
20260906055045 23 46 6.4 20.9 0.00 0.00 0.00 83 993.8
20260906054545 23 40 6.4 20.9 0.00 0.00 0.00 83 993.8
20260906054046 23 45 6.4 14.5 0.00 0.00 0.00 83 993.7
20260906053545 23 45 6.4 16.1 0.00 0.00 0.00 83 993.7
20260906053042 23 44 6.4 17.7 0.00 0.00 0.00 82 993.6
20260906052543 23 45 6.4 17.7 0.00 0.00 0.00 82 993.6
20260906052042 23 51 8.0 19.3 0.00 0.00 0.00 82 993.5
20260906051802 23 38 8.0 20.9 0.00 0.00 0.00 82 993.5
20260906051042 23 45 8.0 20.9 0.00 0.00 0.00 83 993.4
20260906050804 23 22 8.0 20.9 0.00 0.00 0.00 83 993.4
20260906050300 23 38 8.0 20.9 0.00 0.00 0.00 83 993.3
20260906045540 23 45 6.4 19.3 0.00 0.00 0.00 83 993.3
20260906045038 23 30 6.4 19.3 0.00 0.00 0.00 82 993.3
20260906044539 23 42 8.0 16.1 0.00 0.00 0.00 82 993.2
20260906044038 23 345 6.4 16.1 0.00 0.00 0.00 82 993.2
20260906043538 23 40 8.0 17.7 0.00 0.00 0.00 83 993.1
20260906043305 23 35 8.0 17.7 0.00 0.00 0.00 82 993.1
20260906042539 23 43 6.4 19.3 0.00 0.00 0.00 82 993.0
20260906042038 23 48 8.0 19.3 0.00 0.00 0.00 82 993.0
20260906041538 23 45 6.4 17.7 0.00 0.00 0.00 82 993.0
20260906041037 23 49 6.4 16.1 0.00 0.00 0.00 82 992.9
20260906040535 23 44 8.0 19.3 0.00 0.00 0.00 82 992.9
20260906040517 23 39 6.4 19.3 0.00 0.00 0.00 82 992.8
20260906035537 23 35 4.8 11.3 0.00 0.00 0.00 82 992.8
20260906035037 23 46 6.4 19.3 0.00 0.00 0.00 82 992.8
20260906034538 23 46 6.4 19.3 0.00 0.00 0.00 82 992.9
20260906034037 23 35 6.4 30.6 0.00 0.00 0.00 82 992.9
20260906033537 23 23 6.4 30.6 0.00 0.00 0.00 82 992.7
20260906033258 23 39 8.0 19.3 0.00 0.00 0.00 82 992.7
20260906032537 23 41 9.7 22.5 0.00 0.00 0.00 82 992.7
20260906032037 23 45 9.7 25.7 0.00 0.00 0.00 82 992.6
20260906031534 23 33 8.0 25.7 0.00 0.00 0.00 82 992.7
20260906031034 23 45 6.4 14.5 0.00 0.00 0.00 82 992.7
20260906030755 23 45 6.4 16.1 0.00 0.00 0.00 82 992.8
20260906030033 23 44 6.4 22.5 0.00 0.00 0.00 82 992.8
20260906025754 23 29 8.0 32.2 0.00 0.00 0.00 82 992.9
20260906025034 23 46 8.0 32.2 0.00 0.00 0.00 82 992.7
20260906024756 23 44 8.0 29.0 0.00 0.00 0.00 81 992.7
20260906024035 23 36 9.7 29.0 0.00 0.00 0.00 81 992.8
20260906023534 23 58 9.7 25.7 0.00 0.00 0.00 81 992.7
20260906023035 22 31 9.7 25.7 0.00 0.00 0.00 82 992.8
20260906022534 22 38 9.7 25.7 0.00 0.00 0.00 82 992.9
20260906022034 22 34 9.7 20.9 0.00 0.00 0.00 82 992.9
20260906022017 23 54 9.7 20.9 0.00 0.00 0.00 81 992.9
20260906021032 23 31 9.7 16.1 0.00 0.00 0.00 80 992.8
20260906020532 23 34 9.7 25.7 0.00 0.00 0.00 80 992.9
20260906020253 23 32 12.9 25.7 0.00 0.00 0.00 80 992.8
20260906015529 23 39 12.9 25.7 0.00 0.00 0.00 80 992.8
20260906015029 23 31 9.7 25.7 0.00 0.00 0.00 79 992.8
20260906014529 23 51 11.3 19.3 0.00 0.00 0.00 79 992.7
20260906014249 23 40 11.3 22.5 0.00 0.00 0.00 79 992.7
20260906013529 23 52 12.9 24.1 0.00 0.00 0.00 79 992.6
20260906013029 23 50 11.3 24.1 0.00 0.00 0.00 79 992.6
20260906012751 23 39 9.7 19.3 0.00 0.00 0.00 80 992.6
20260906012030 23 10 8.0 22.5 0.00 0.00 0.00 80 992.6
20260906011527 23 326 8.0 22.5 0.00 0.00 0.00 80 992.5
20260906011023 23 14 9.7 16.1 0.00 0.00 0.00 80 992.5
20260906010744 23 32 11.3 17.7 0.00 0.00 0.00 80 992.5
20260906010019 24 31 9.7 17.7 0.00 0.00 0.00 80 992.4
20260906005743 24 20 8.0 17.7 0.00 0.00 0.00 79 992.4
20260906005237 24 335 6.4 14.5 0.00 0.00 0.00 79 992.3
20260906004518 25 40 4.8 11.3 0.00 0.00 0.00 79 992.4
20260906004018 25 31 6.4 14.5 0.00 0.00 0.00 78 992.3
20260906003518 25 348 6.4 16.1 0.00 0.00 0.00 78 992.2
20260906003018 25 354 6.4 16.1 0.00 0.00 0.00 77 992.1
20260906002518 25 340 6.4 14.5 0.00 0.00 0.00 76 991.9
20260906002018 25 57 4.8 14.5 0.00 0.00 0.00 76 991.8
20260906001519 26 29 4.8 11.3 0.00 0.00 0.00 75 991.8
20260906001016 26 292 4.8 19.3 0.00 0.00 0.00 74 991.7
20260906000516 26 42 4.8 19.3 0.00 0.00 0.00 74 991.6
20260906000013 26 5 4.8 19.3 0.00 0.00 0.00 74 991.5
20260905235513 26 27 4.8 17.7 0.00 0.00 0.00 74 991.5
20260905235013 26 338 4.8 12.9 0.00 0.00 0.00 74 991.5
20260905234513 26 34 4.8 12.9 0.00 0.00 0.00 72 991.4
20260905234013 27 27 4.8 9.7 0.00 0.00 0.00 72 991.5
20260905233512 27 30 4.8 11.3 0.00 0.00 0.00 71 991.6
20260905233501 27 37 4.8 11.3 0.00 0.00 0.00 72 991.6
20260905232513 27 149 3.2 9.7 0.00 0.00 0.00 72 991.6
20260905232013 27 48 3.2 9.7 0.00 0.00 0.00 72 991.5
20260905231951 27 46 3.2 8.0 0.00 0.00 0.00 72 991.5
20260905231007 27 264 3.2 9.7 0.00 0.00 0.00 72 991.5
20260905230507 27 35 4.8 9.7 0.00 0.00 0.00 71 991.5
20260905230004 27 23 4.8 12.9 0.00 0.00 0.00 71 991.4
20260905225505 27 357 4.8 12.9 0.00 0.00 0.00 71 991.3
20260905225005 27 51 4.8 11.3 0.00 0.00 0.00 71 991.3
20260905224505 27 29 4.8 11.3 0.00 0.00 0.00 72 991.2
20260905224006 27 43 3.2 9.7 0.00 0.00 0.00 72 991.0
20260905223505 27 3 4.8 9.7 0.00 0.00 0.00 72 991.2
20260905223006 27 348 4.8 11.3 0.00 0.00 0.00 72 991.3
20260905222505 27 283 6.4 12.9 0.00 0.00 0.00 71 991.4
20260905222452 27 17 6.4 12.9 0.00 0.00 0.00 71 991.2
20260905221505 27 345 6.4 14.5 0.00 0.00 0.00 71 991.1
20260905221003 27 52 6.4 14.5 0.00 0.00 0.00 71 991.1
20260905220459 27 51 6.4 17.7 0.00 0.00 0.00 71 991.2
20260905220000 27 3 6.4 17.7 0.00 0.00 0.00 72 991.2
20260905215500 27 75 4.8 11.3 0.00 0.00 0.00 72 991.2
20260905215223 28 51 4.8 12.9 0.00 0.00 0.00 71 991.2
20260905214500 28 46 6.4 14.5 0.00 0.00 0.00 71 991.2
20260905214000 28 85 8.0 17.7 0.00 0.00 0.00 70 991.1
20260905213501 28 347 6.4 19.3 0.00 0.00 0.00 69 991.0
20260905213001 29 41 6.4 19.3 0.00 0.00 0.00 69 990.9
20260905212721 29 13 6.4 12.9 0.00 0.00 0.00 69 990.9
20260905212001 29 5 6.4 14.5 0.00 0.00 0.00 68 990.9
20260905211500 29 289 6.4 14.5 0.00 0.00 0.00 68 990.8
20260905210957 29 289 6.4 14.5 0.00 0.00 0.00 68 990.8
20260905210454 30 329 6.4 14.5 0.00 0.00 0.00 67 990.8
20260905205954 30 47 6.4 12.9 0.00 0.00 0.00 68 990.8
20260905205454 30 5 6.4 12.9 0.00 0.00 0.00 68 990.8
20260905205215 30 333 8.0 17.7 0.00 0.00 0.00 67 990.8
20260905204455 30 352 8.0 17.7 0.00 0.00 0.00 67 990.9
20260905203955 29 39 6.4 14.5 0.00 0.00 0.00 68 990.9
20260905203455 29 269 6.4 14.5 0.00 0.00 0.00 68 990.9
20260905202955 30 73 6.4 14.5 0.00 0.00 0.00 68 990.9
20260905202456 30 355 6.4 14.5 0.00 0.00 0.00 66 991.0
20260905201956 30 313 6.4 14.5 0.00 0.00 0.00 67 991.0
20260905201722 30 324 6.4 14.5 0.00 0.00 0.00 66 990.9
20260905200951 30 22 6.4 16.1 0.00 0.00 0.00 66 990.9
20260905200448 31 73 6.4 16.1 0.00 0.00 0.00 65 990.8
20260905195947 31 330 6.4 14.5 0.00 0.00 0.00 65 990.8
20260905195447 31 315 6.4 14.5 0.00 0.00 0.00 64 990.8
20260905195205 31 13 6.4 12.9 0.00 0.00 0.00 63 990.7
20260905194448 31 4 6.4 12.9 0.00 0.00 0.00 63 990.8
20260905194209 32 49 6.4 16.1 0.00 0.00 0.00 63 990.8
20260905193448 32 6 6.4 16.1 0.00 0.00 0.00 63 990.8
20260905193209 32 336 6.4 12.9 0.00 0.00 0.00 63 990.8
20260905192448 31 54 4.8 11.3 0.00 0.00 0.00 64 990.9
20260905191948 31 28 4.8 12.9 0.00 0.00 0.00 64 990.8
20260905191448 32 11 6.4 12.9 0.00 0.00 0.00 64 990.9
20260905190947 32 329 6.4 12.9 0.00 0.00 0.00 63 991.0
20260905190447 32 356 4.8 11.3 0.00 0.00 0.00 63 990.9
20260905185947 32 31 4.8 12.9 0.00 0.00 0.00 63 991.0
20260905185448 32 317 6.4 14.5 0.00 0.00 0.00 62 991.0
20260905184948 31 335 6.4 14.5 0.00 0.00 0.00 63 991.1
20260905184711 31 12 4.8 11.3 0.00 0.00 0.00 65 991.1
20260905183948 31 23 4.8 11.3 0.00 0.00 0.00 64 991.1
20260905183717 31 322 4.8 12.9 0.00 0.00 0.00 65 991.0
20260905182949 32 42 4.8 12.9 0.00 0.00 0.00 65 991.0
20260905182447 32 291 4.8 9.7 0.00 0.00 0.00 63 991.1
20260905181948 31 12 3.2 9.7 0.00 0.00 0.00 65 991.1
20260905181449 32 5 4.8 14.5 0.00 0.00 0.00 65 991.2
20260905180948 32 47 4.8 14.5 0.00 0.00 0.00 64 991.2
20260905180446 32 46 3.2 12.9 0.00 0.00 0.00 64 991.1
20260905175947 32 353 3.2 9.7 0.00 0.00 0.00 65 991.1
20260905175447 31 353 4.8 9.7 0.00 0.00 0.00 66 991.1
20260905174947 31 9 3.2 9.7 0.00 0.00 0.00 67 991.1
20260905174447 32 56 3.2 11.3 0.00 0.00 0.00 65 991.1
20260905173947 32 21 3.2 11.3 0.00 0.00 0.00 66 991.2
20260905173448 31 314 3.2 11.3 0.00 0.00 0.00 67 991.2
20260905172948 31 334 4.8 12.9 0.00 0.00 0.00 67 991.2
20260905172705 31 358 3.2 12.9 0.00 0.00 0.00 67 991.2
20260905171947 31 250 3.2 9.7 0.00 0.00 0.00 69 991.2
20260905171447 31 55 4.8 14.5 0.00 0.00 0.00 69 991.3
20260905170946 31 346 4.8 14.5 0.00 0.00 0.00 67 991.4
20260905170444 31 23 3.2 6.4 0.00 0.00 0.00 70 991.4
20260905165943 31 309 3.2 8.0 0.00 0.00 0.00 70 991.4
20260905165444 31 12 4.8 12.9 0.00 0.00 0.00 70 991.5
20260905164943 31 52 4.8 12.9 0.00 0.00 0.00 69 991.5
20260905164443 31 350 4.8 14.5 0.00 0.00 0.00 68 991.5
20260905163944 31 325 4.8 14.5 0.00 0.00 0.00 69 991.5
20260905163444 31 292 4.8 9.7 0.00 0.00 0.00 70 991.5
20260905162945 30 287 3.2 11.3 0.00 0.00 0.00 71 991.5
20260905162444 30 26 4.8 11.3 0.00 0.00 0.00 72 991.5
20260905161945 30 14 4.8 11.3 0.00 0.00 0.00 71 991.6
20260905161445 30 82 4.8 12.9 0.00 0.00 0.00 71 991.6
20260905160945 30 352 6.4 12.9 0.00 0.00 0.00 71 991.6
20260905160441 30 13 4.8 11.3 0.00 0.00 0.00 71 991.5
20260905155942 30 282 4.8 9.7 0.00 0.00 0.00 73 991.5
20260905155441 30 324 4.8 9.7 0.00 0.00 0.00 74 991.4
20260905154942 30 42 4.8 11.3 0.00 0.00 0.00 73 991.3
20260905154442 30 6 4.8 14.5 0.00 0.00 0.00 73 991.2
20260905153942 30 354 6.4 14.5 0.00 0.00 0.00 73 991.2
20260905153442 30 52 6.4 12.9 0.00 0.00 0.00 73 991.3
20260905152942 30 14 6.4 12.9 0.00 0.00 0.00 73 991.3
20260905152928 30 26 4.8 9.7 0.00 0.00 0.00 73 991.2
20260905151942 30 344 4.8 9.7 0.00 0.00 0.00 75 991.2
20260905151442 30 306 4.8 11.3 0.00 0.00 0.00 75 991.1
20260905150942 29 1 4.8 11.3 0.00 0.00 0.00 76 991.0
20260905150439 29 54 3.2 11.3 0.00 0.00 0.00 77 991.0
20260905145940 29 359 3.2 11.3 0.00 0.00 0.00 77 990.9
20260905145440 29 9 4.8 11.3 0.00 0.00 0.00 77 990.9
20260905145424 29 12 3.2 9.7 0.00 0.00 0.00 79 990.9
20260905144440 29 211 3.2 6.4 0.00 0.00 0.00 78 990.9
20260905143940 28 250 3.2 6.4 0.00 0.00 0.00 79 990.9
20260905143440 28 312 3.2 6.4 0.00 0.00 0.00 80 990.8
20260905142940 28 18 3.2 8.0 0.00 0.00 0.00 81 990.7
20260905142703 28 349 3.2 8.0 0.00 0.00 0.00 81 990.7
20260905141941 28 318 3.2 6.4 0.00 0.00 0.00 82 990.7
20260905141437 27 324 4.8 11.3 0.00 0.00 0.00 82 990.7
20260905140938 27 19 4.8 11.3 0.00 0.00 0.00 82 990.6
20260905140434 27 41 4.8 9.7 0.00 0.00 0.00 83 990.6
20260905135935 27 25 3.2 9.7 0.00 0.00 0.00 82 990.6
20260905135432 27 69 3.2 8.0 0.00 0.00 0.00 83 990.5
20260905134933 27 314 3.2 8.0 0.00 0.00 0.00 83 990.6
20260905134432 27 3 3.2 9.7 0.00 0.00 0.00 83 990.8
20260905133932 27 64 4.8 9.7 0.00 0.00 0.00 83 990.9
20260905133432 27 29 3.2 9.7 0.00 0.00 0.00 83 991.1
20260905132932 27 316 3.2 9.7 0.00 0.00 0.00 84 991.1
20260905132432 27 310 3.2 9.7 0.00 0.00 0.00 84 991.0
20260905131933 27 290 3.2 8.0 0.00 0.00 0.00 85 990.9
20260905131430 27 294 3.2 8.0 0.00 0.00 0.00 84 990.8
20260905130929 27 288 3.2 6.4 0.00 0.00 0.00 85 990.6
20260905130430 26 335 1.6 6.4 0.00 0.00 0.00 85 990.5
20260905125927 26 296 3.2 6.4 0.00 0.00 0.00 85 990.5
20260905125426 26 267 1.6 6.4 0.00 0.00 0.00 86 990.4
20260905125142 26 312 1.6 3.2 0.00 0.00 0.00 86 990.4
20260905124647 26 331 1.6 3.2 0.00 0.00 0.00 86 990.3